SCP
2 2 2 2 2 1 1 2 2 2 2 2 2 2 1 1 1 1 1 1 1 1 0 0 0 0 0 0 0 0 0 0 0 0 0 0 0 0 0 0 0 0 0
1 1 1 1 1 1 1 1 1 1 1 1 1 1 1 1 1 1 1 0 1 1 0 0 0 0 0 0 0 0 0 0 0 0 0 0 0 0 0 0 0 0 0
1 1 1 1 1 1 1 1 1 1 1 1 1 1 1 1 1 1 0 0 0 0 0 0 0 0 0 0 0 0 0 0 0 0 0 0 0 0 0 0 0 0 0
0 0 0 0 0 0 0 0 0 0 0 1 1 1 1 1 1 1 0 0 0 0 0 0 0 0 0 0 0 0 0 0 0 0 0 0 0 0 0 0 0 0 0
0 0 0 0 0 0 0 0 0 0 0 0 0 0 0 0 1 1 0 0 0 0 0 0 0 0 0 0 0 0 0 0 0 0 0 0 0 0 0 0 0 0 0
0 0 0 0 0 0 0 0 0 0 0 0 0 0 0 0 0 0 0 0 0 0 0 0 0 0 0 0 0 0 0 0 0 0 0 0 0 0 0 0 0 0 0
0 0 0 0 0 0 0 0 0 0 0 0 0 0 0 0 0 0 0 0 0 0 0 0 0 0 0 0 0 0 0 0 0 0 0 0 0 0 0 0 0 0 0
0 0 0 0 0 0 0 0 0 0 0 0 0 0 0 0 0 0 0 0 0 0 -0 0 0 0 0 0 0 0 0 0 0 0 0 0 0 0 0 0 0 0 0
0 0 0 0 0 0 0 0 0 0 0 0 0 0 0 0 0 0 0 0 0 0 0 0 0 0 0 0 0 0 0 0 0 0 0 0 0 0 0 0 0 0 0
0 0 0 -0 0 0 0 0 0 0 0 0 0 0 0 0 0 0 0 0 0 0 0 0 0 0 0 0 0 0 0 0 0 0 0 0 0 0 0 0 0 0 0
0 0 0 0 0 0 0 0 0 0 0 0 0 0 0 0 0 0 0 0 0 0 0 0 0 0 0 0 0 0 0 0 0 0 0 0 0 0 0 0 0 0 0
0 0 0 0 0 0 0 0 0 0 0 0 0 0 0 0 0 0 0 0 0 0 0 0 0 0 0 0 0 0 0 0 0 0 0 0 0 0 0 0 0 0 0
0 0 0 0 0 0 0 0 0 0 0 0 0 0 0 0 0 0 0 0 0 0 0 0 0 0 0 0 0 0 0 0 0 0 0 0 0 0 0 0 0 0 0
0 0 0 0 0 0 0 0 0 0 0 0 0 0 0 0 0 0 0 0 0 0 0 0 0 0 0 0 0 0 0 0 0 0 0 0 0 0 0 0 0 0 0
0 0 0 0 0 0 0 0 0 0 0 0 0 0 0 0 0 0 0 0 0 0 0 0 0 0 0 0 0 0 0 0 0 0 0 0 0 0 0 0 0 0 0
0 0 0 0 0 0 0 0 0 0 0 0 0 0 0 0 0 0 0 0 0 0 0 0 0 0 0 0 0 0 0 0 0 0 0 0 0 0 0 0 0 0 0
0 0 0 0 0 0 0 0 0 0 0 0 0 0 0 0 0 0 0 0 0 0 0 0 0 0 0 0 0 0 0 0 0 0 0 0 0 0 0 0 0 0 0
0 0 0 0 0 0 0 0 0 0 0 0 0 0 0 0 0 0 0 0 0 0 0 0 0 0 0 0 0 0 0 0 0 0 0 0 0 0 0 0 0 0 0
0 0 0 0 0 0 0 0 0 0 0 0 0 0 0 0 0 0 0 0 0 0 0 0 0 0 0 0 0 0 0 0 0 0 0 0 0 0 0 0 0 0 0
0 0 0 0 0 0 0 0 0 0 0 0 0 0 0 0 0 0 0 0 0 0 0 0 0 0 0 0 0 0 0 0 0 0 0 0 0 0 0 0 0 0 0
0 0 0 0 0 0 0 0 0 0 0 0 0 0 0 0 0 0 0 0 0 0 0 0 0 0 0 0 0 0 0 0 0 0 0 0 0 0 0 0 0 0 0
0 0 0 0 0 0 0 0 0 0 0 0 0 0 0 0 0 0 0 0 0 0 0 0 0 0 0 0 0 0 0 0 0 0 0 0 0 0 0 0 0 0 0
0 0 0 0 0 0 0 0 0 0 0 0 0 0 0 0 0 0 0 0 0 0 0 0 0 0 0 0 0 0 0 0 0 0 0 0 0 0 0 0 0 0 0
0 0 0 0 0 0 0 0 0 0 0 0 0 0 0 0 0 0 0 0 0 0 0 0 0 0 0 0 0 0 0 0 0 0 0 0 0 0 0 0 0 0 0
0 0 0 0 0 0 0 0 0 0 0 0 0 0 0 0 0 0 0 0 0 0 0 0 0 0 0 0 0 0 0 0 0 0 0 0 0 0 0 0 0 0 0
0 0 0 0 0 0 0 0 0 0 0 0 0 0 0 0 0 0 0 0 0 0 0 0 0 0 0 0 0 0 0 0 0 0 -0 0 0 -0 0 0 0 0 0
Wind_Speed
6 8 7 6 6 4 2 2 3 4 3 2 1 1 1 1 1 2 3 4 4 4 3 2 2 2 2 1 1 1 1 1 1 1 3 4 5 5 5 5 4 5 5
8 8 8 7 7 5 4 3 4 2 2 2 2 1 1 1 1 2 2 3 4 4 4 3 3 3 2 1 1 1 0 1 0 1 1 4 5 4 3 2 3 4 3
7 7 9 9 8 7 6 5 4 5 4 2 1 2 2 1 1 1 1 2 3 4 4 5 4 4 3 2 2 2 2 1 1 1 2 1 3 4 4 3 2 2 2
7 7 8 8 8 7 7 6 4 5 4 3 3 2 1 1 2 2 2 2 2 2 4 5 4 4 4 4 3 3 3 3 2 1 2 3 3 2 4 4 3 4 3
7 7 7 7 7 8 8 8 8 8 7 6 6 4 2 2 2 2 2 2 2 3 3 3 3 4 3 4 4 3 3 3 3 3 2 2 2 3 3 5 4 4 4
6 6 5 6 6 7 8 7 8 8 7 7 6 5 5 4 3 3 2 2 2 3 3 2 3 3 3 4 4 4 4 4 4 3 3 3 3 3 3 4 4 5 4
4 4 4 5 5 5 5 5 6 5 5 5 5 5 4 4 4 4 3 3 3 3 4 3 3 3 4 4 4 4 4 5 5 5 4 4 4 4 3 4 4 4 4
2 3 3 3 3 3 3 3 4 3 3 3 3 3 3 3 3 4 3 3 3 3 4 4 3 4 4 4 4 3 4 4 5 6 5 4 4 4 4 4 3 4 4
2 2 1 2 2 2 1 1 1 1 2 3 3 3 3 3 3 4 4 3 3 4 4 4 4 4 4 4 5 4 5 5 5 6 6 5 4 4 4 4 4 4 4
2 2 2 2 2 2 1 1 1 2 3 3 3 3 3 4 4 4 5 5 5 5 5 5 5 5 4 5 4 5 5 6 6 5 6 6 4 4 4 4 4 4 4
3 4 4 3 3 2 2 2 2 3 3 4 4 4 5 5 5 5 6 5 5 5 5 5 5 5 5 5 4 5 6 7 7 6 6 7 5 4 4 4 4 4 4
3 3 3 2 2 3 4 4 5 5 6 5 5 6 6 5 6 6 7 6 6 6 6 6 5 5 5 5 5 6 6 7 7 7 7 7 5 6 4 4 5 5 5
3 3 3 3 4 5 6 6 6 7 7 6 6 7 7 7 7 8 7 7 7 7 6 6 6 6 5 5 6 6 7 7 7 7 8 7 6 6 4 4 5 4 5
4 4 4 5 6 6 7 7 8 8 8 7 7 8 8 8 8 8 8 7 7 7 7 6 6 6 6 6 6 6 6 6 6 7 8 8 8 7 6 5 5 4 4
4 5 5 6 7 7 7 8 8 8 8 8 8 9 9 9 8 8 8 7 7 7 7 6 6 6 5 6 5 5 7 6 6 6 7 7 9 10 7 5 5 4 4
7 7 7 7 8 8 9 8 9 9 8 8 9 9 8 8 8 8 7 7 7 7 6 6 6 6 6 8 10 8 6 6 6 7 7 7 8 10 10 10 8 7 6
8 8 8 9 9 9 9 9 9 9 8 8 9 9 9 8 9 9 7 8 8 7 7 7 7 7 8 12 12 12 7 7 6 7 6 6 6 8 6 6 6 6 7
8 9 9 9 9 8 8 8 8 8 8 9 9 9 8 9 8 8 8 8 7 7 7 7 8 7 9 12 12 12 8 6 7 7 7 7 6 7 7 5 4 3 3
9 9 9 9 8 9 9 9 8 9 9 9 9 9 9 9 8 8 9 8 7 7 7 6 7 8 9 12 13 11 5 5 6 6 7 7 7 10 10 7 6 4 2
8 8 8 9 9 10 9 9 10 10 10 10 10 9 9 8 9 9 9 7 7 8 7 7 7 8 8 11 13 10 4 5 5 5 5 8 8 10 12 8 8 6 4
9 9 9 8 9 10 9 9 10 11 11 10 10 9 9 9 9 8 7 7 7 6 6 7 7 7 9 10 12 11 5 5 5 4 4 4 7 9 11 9 7 8 7
9 9 8 9 9 9 10 11 11 11 11 10 10 10 9 9 9 7 7 7 6 6 6 6 6 5 6 8 9 10 9 7 5 4 3 4 8 8 9 8 8 10 8
9 9 10 11 10 10 10 12 13 12 11 10 11 10 10 8 8 7 7 6 5 5 6 5 5 5 4 5 8 8 8 8 4 3 4 4 8 8 6 8 11 10 6
10 10 11 12 12 12 11 12 12 11 11 11 10 9 8 8 7 6 5 5 5 5 5 5 5 4 3 3 3 3 3 5 4 3 3 5 6 5 6 7 7 5 5
9 10 11 13 14 13 13 12 12 11 11 11 10 9 7 7 6 6 5 6 6 6 6 5 5 4 4 6 7 5 4 4 4 4 3 3 3 4 4 4 4 4 5
11 12 13 13 14 14 14 13 11 10 10 9 8 6 5 5 5 5 5 7 8 9 11 10 7 5 7 7 7 8 7 7 8 5 4 4 5 5 6 6 5 4 5
Wind_Direction
75 74 69 62 62 28 16 186 148 152 146 133 168 146 163 233 238 214 181 168 163 156 152 154 156 151 161 201 214 216 271 277 300 335 312 295 272 258 248 245 244 242 239
63 66 74 69 71 61 8 53 47 64 91 153 176 152 159 189 219 231 206 189 176 172 168 173 187 181 174 197 207 174 186 279 46 137 322 325 328 320 288 270 248 251 244
66 59 61 56 53 51 38 56 40 37 32 32 76 63 47 26 344 285 245 229 199 188 186 195 186 184 179 195 210 185 175 220 268 175 178 240 283 311 311 304 293 291 266
60 57 56 54 54 50 47 49 51 50 43 47 56 71 100 237 247 248 243 251 234 217 210 199 189 190 190 196 209 188 185 181 232 262 210 205 210 256 305 313 314 308 289
62 61 58 56 49 47 47 42 43 41 36 36 33 28 355 301 299 306 307 277 272 249 225 205 191 196 202 205 207 201 201 191 200 213 223 235 237 222 236 284 304 312 294
67 66 59 59 52 50 48 45 45 34 26 31 31 25 0 347 344 330 321 306 295 286 269 235 212 206 207 211 211 211 212 212 214 215 208 206 220 226 227 259 281 287 286
72 75 71 64 58 57 55 51 51 37 22 23 21 17 5 360 350 332 329 322 311 300 293 279 246 230 222 217 208 210 223 221 222 222 220 216 220 215 217 245 269 274 282
91 84 80 84 78 66 63 66 58 33 6 11 2 355 358 350 336 331 322 312 297 285 291 290 272 251 233 228 218 219 227 228 228 235 229 225 228 217 214 221 245 279 283
125 120 113 107 116 119 126 118 87 357 324 323 323 327 332 330 323 321 319 310 301 300 304 295 287 277 251 233 228 231 230 228 230 234 234 232 232 225 225 221 214 233 272
176 173 198 199 195 190 198 201 200 246 269 289 294 302 300 297 295 301 304 300 297 298 302 299 291 283 271 251 237 238 236 232 235 231 232 235 233 232 227 225 223 216 229
211 218 223 218 216 226 231 245 259 263 267 267 267 277 278 280 284 284 283 283 283 290 290 286 284 283 279 271 255 248 243 237 240 238 232 235 229 231 231 227 225 222 217
252 249 245 243 255 262 264 264 264 263 260 257 257 260 263 267 271 270 271 272 275 276 274 274 274 274 277 272 261 259 258 247 242 237 231 235 231 231 230 227 230 228 220
301 301 300 288 280 272 265 262 260 257 258 256 255 258 260 259 259 259 262 264 265 268 271 269 267 266 268 268 260 253 255 250 246 237 228 228 222 229 230 231 234 232 229
316 314 301 283 276 272 266 263 262 258 257 254 252 254 255 253 254 256 257 258 258 259 261 260 258 256 258 261 262 264 261 256 252 243 232 223 215 218 222 230 233 228 224
319 304 289 277 275 275 271 265 262 260 258 256 253 252 252 252 252 253 255 257 255 257 251 251 256 257 259 260 265 264 268 258 256 252 241 229 221 216 214 221 222 214 211
295 288 283 279 276 273 269 265 263 260 255 251 251 251 250 250 248 248 249 253 253 254 252 250 251 255 266 274 274 268 264 256 251 253 245 236 227 219 216 218 216 207 204
286 283 279 272 271 269 267 266 264 264 261 255 254 251 249 248 246 247 246 243 246 245 246 249 248 250 256 263 268 267 259 251 247 246 237 238 228 208 208 213 213 214 214
286 282 279 278 276 275 276 275 276 274 269 265 264 263 260 257 252 250 249 247 243 238 238 242 244 248 258 261 264 265 258 248 246 241 232 231 222 209 195 190 188 199 205
282 281 282 283 285 284 283 285 284 279 276 274 271 268 264 261 258 253 251 248 243 242 241 240 241 245 256 259 260 257 242 244 247 242 237 230 219 209 189 178 178 184 201
291 290 292 292 291 289 290 291 290 288 283 277 271 269 265 261 259 254 251 249 244 241 240 243 241 242 250 255 254 247 229 237 244 241 239 230 220 202 186 179 175 179 186
294 296 298 298 293 294 297 293 292 288 285 284 280 276 270 265 260 255 251 249 248 244 240 243 248 246 248 255 253 244 218 218 230 234 227 223 215 199 190 182 179 177 164
301 301 301 299 296 296 296 293 289 285 284 284 282 278 273 271 276 258 254 249 243 245 245 244 254 255 253 249 249 240 226 213 216 228 222 206 193 193 185 180 165 154 146
304 303 303 303 302 300 297 294 293 292 289 283 278 275 273 267 263 258 255 254 243 238 241 236 242 254 255 250 242 231 221 210 205 212 209 195 185 179 177 176 162 153 146
306 306 308 308 306 303 299 293 295 297 294 289 284 278 272 268 262 256 249 246 243 239 238 233 235 243 246 240 225 205 197 194 194 191 178 174 171 173 164 162 160 151 147
309 310 311 309 308 307 303 301 301 300 296 292 287 281 272 265 260 253 248 244 238 232 227 227 221 221 238 235 212 192 188 189 189 167 153 157 155 166 160 153 151 141 138
315 315 314 312 311 310 308 306 301 297 298 295 289 281 275 269 259 258 266 254 249 254 244 233 224 228 231 225 209 195 186 182 170 166 167 166 170 174 170 159 152 148 148